When you browse on this site, cookies collect data to enhance your experience and personalize the content and advertising you see.
Visit our Privacy Policy to learn more. By continuing to use the site, you agree to this use of cookies and data.
  • Em Portugal
  • Lista de países
  • Para 7 dias
  • Temperatura da água
  • Mapa do tempo
  • Widgets de tempo
  • user-avatar
    Iniciar Sessão

    Previsão horária em Manresa

    Hoje, 22 Agosto, Quinta-feira

    Tempo Temperatura Precipitação Vento Pressão Humidade
    00:00 +21°C° 0.1 mm 0 m/s 737 mmHg 73%
    01:00 +21°C° 0.1 mm 0 m/s 737 mmHg 72%
    02:00 +21°C° 0.1 mm 0 m/s 737 mmHg 72%
    03:00 +23°C° 0.1 mm 1 m/s 737 mmHg 71%
    04:00 +23°C° 0 mm 1 m/s 737 mmHg 70%
    05:00 +23°C° 0 mm 1 m/s 737 mmHg 69%
    06:00 +23°C° 0 mm 1 m/s 737 mmHg 69%
    07:00 +24°C° 0 mm 1 m/s 738 mmHg 62%
    08:00 +26°C° 0 mm 1 m/s 738 mmHg 56%
    09:00 +28°C° 0 mm 1 m/s 738 mmHg 49%
    10:00 +29°C° 0 mm 2 m/s 738 mmHg 45%
    11:00 +30°C° 0 mm 2 m/s 738 mmHg 41%
    12:00 +31°C° 0 mm 2 m/s 738 mmHg 36%
    13:00 +31°C° 0 mm 3 m/s 738 mmHg 35%
    14:00 +31°C° 0 mm 3 m/s 738 mmHg 34%
    15:00 +33°C° 0 mm 3 m/s 737 mmHg 33%
    16:00 +30°C° 0 mm 3 m/s 737 mmHg 37%
    17:00 +29°C° 0 mm 3 m/s 737 mmHg 40%
    18:00 +28°C° 0 mm 3 m/s 737 mmHg 44%
    19:00 +27°C° 0 mm 2 m/s 737 mmHg 49%
    20:00 +25°C° 0 mm 1 m/s 738 mmHg 54%
    21:00 +24°C° 0 mm 1 m/s 738 mmHg 60%
    22:00 +24°C° 0 mm 1 m/s 738 mmHg 60%
    23:00 +23°C° 0 mm 1 m/s 738 mmHg 60%

    Amanhã, 23 Agosto, Sexta-feira

    Tempo Temperatura Precipitação Vento Pressão Humidade
    00:00 +23°C° 0 mm 1 m/s 738 mmHg 60%
    01:00 +23°C° 0 mm 1 m/s 737 mmHg 59%
    02:00 +23°C° 0 mm 1 m/s 737 mmHg 58%
    03:00 +22°C° 0 mm 1 m/s 737 mmHg 57%
    04:00 +22°C° 0 mm 1 m/s 737 mmHg 56%
    05:00 +23°C° 0 mm 1 m/s 737 mmHg 54%
    06:00 +23°C° 0 mm 1 m/s 737 mmHg 53%
    07:00 +25°C° 0 mm 1 m/s 738 mmHg 46%
    08:00 +27°C° 0 mm 1 m/s 738 mmHg 39%
    09:00 +28°C° 0 mm 0 m/s 738 mmHg 32%
    10:00 +31°C° 0 mm 1 m/s 738 mmHg 30%
    11:00 +32°C° 0 mm 2 m/s 738 mmHg 28%
    12:00 +34°C° 0 mm 2 m/s 737 mmHg 25%
    13:00 +34°C° 0 mm 3 m/s 737 mmHg 26%
    14:00 +34°C° 0 mm 3 m/s 737 mmHg 27%
    15:00 +34°C° 0 mm 3 m/s 737 mmHg 28%
    16:00 +33°C° 0 mm 3 m/s 736 mmHg 33%
    17:00 +30°C° 0 mm 3 m/s 736 mmHg 39%
    18:00 +29°C° 0 mm 3 m/s 736 mmHg 44%
    19:00 +27°C° 0 mm 2 m/s 736 mmHg 49%
    20:00 +26°C° 0 mm 1 m/s 736 mmHg 54%
    21:00 +25°C° 0 mm 1 m/s 737 mmHg 59%
    22:00 +24°C° 0 mm 1 m/s 737 mmHg 59%
    23:00 +24°C° 0 mm 1 m/s 737 mmHg 60%

    Depois de amanhã, 24 Agosto, Sábado

    Tempo Temperatura Precipitação Vento Pressão Humidade
    00:00 +24°C° 0 mm 1 m/s 736 mmHg 60%
    01:00 +24°C° 0 mm 1 m/s 736 mmHg 60%
    02:00 +23°C° 0 mm 1 m/s 736 mmHg 60%
    03:00 +23°C° 0 mm 1 m/s 736 mmHg 60%
    04:00 +23°C° 0 mm 1 m/s 736 mmHg 59%
    05:00 +23°C° 0 mm 1 m/s 736 mmHg 58%
    06:00 +24°C° 0 mm 1 m/s 736 mmHg 57%
    07:00 +26°C° 0 mm 1 m/s 736 mmHg 50%
    08:00 +28°C° 0 mm 1 m/s 736 mmHg 42%
    09:00 +31°C° 0 mm 1 m/s 737 mmHg 35%
    10:00 +32°C° 0 mm 1 m/s 737 mmHg 32%
    11:00 +34°C° 0 mm 2 m/s 737 mmHg 29%
    12:00 +35°C° 0 mm 3 m/s 737 mmHg 26%
    13:00 +35°C° 0 mm 3 m/s 736 mmHg 26%
    14:00 +35°C° 0 mm 4 m/s 736 mmHg 27%
    15:00 +35°C° 0 mm 4 m/s 736 mmHg 27%
    16:00 +34°C° 0 mm 4 m/s 735 mmHg 31%
    17:00 +31°C° 0 mm 3 m/s 735 mmHg 35%
    18:00 +30°C° 0 mm 3 m/s 735 mmHg 39%
    19:00 +28°C° 0 mm 2 m/s 735 mmHg 43%
    20:00 +27°C° 0 mm 2 m/s 736 mmHg 46%
    21:00 +25°C° 0 mm 1 m/s 736 mmHg 50%
    22:00 +25°C° 0 mm 1 m/s 736 mmHg 51%
    23:00 +25°C° 0 mm 1 m/s 735 mmHg 52%

    25 Agosto, Domingo

    Tempo Temperatura Precipitação Vento Pressão Humidade
    00:00 +24°C° 0 mm 1 m/s 735 mmHg 53%
    01:00 +24°C° 0 mm 1 m/s 735 mmHg 53%
    02:00 +24°C° 0 mm 1 m/s 735 mmHg 53%
    03:00 +24°C° 0 mm 1 m/s 735 mmHg 53%
    04:00 +24°C° 0 mm 1 m/s 735 mmHg 52%
    05:00 +24°C° 0 mm 1 m/s 735 mmHg 52%
    06:00 +24°C° 0 mm 1 m/s 735 mmHg 51%
    07:00 +27°C° 0 mm 1 m/s 735 mmHg 45%
    08:00 +29°C° 0 mm 1 m/s 736 mmHg 38%
    09:00 +31°C° 0 mm 1 m/s 736 mmHg 31%
    10:00 +32°C° 0 mm 2 m/s 736 mmHg 30%
    11:00 +34°C° 0 mm 3 m/s 736 mmHg 29%
    12:00 +35°C° 0 mm 4 m/s 735 mmHg 27%
    13:00 +35°C° 0 mm 4 m/s 735 mmHg 29%
    14:00 +35°C° 0 mm 4 m/s 735 mmHg 30%
    15:00 +34°C° 0 mm 5 m/s 735 mmHg 32%
    16:00 +33°C° 0 mm 4 m/s 735 mmHg 36%
    17:00 +30°C° 0 mm 4 m/s 734 mmHg 41%
    18:00 +29°C° 0 mm 3 m/s 734 mmHg 46%
    19:00 +27°C° 0 mm 2 m/s 735 mmHg 50%
    20:00 +26°C° 0 mm 1 m/s 735 mmHg 54%
    21:00 +25°C° 0 mm 1 m/s 735 mmHg 59%
    22:00 +25°C° 0 mm 1 m/s 735 mmHg 60%
    23:00 +22°C° 0 mm 0 m/s 735 mmHg 60%

    26 Agosto, Segunda-feira

    Tempo Temperatura Precipitação Vento Pressão Humidade
    00:00 +22°C° 0 mm 0 m/s 735 mmHg 61%
    01:00 +22°C° 0 mm 0 m/s 735 mmHg 62%
    02:00 +21°C° 0 mm 0 m/s 735 mmHg 63%
    03:00 +21°C° 0 mm 0 m/s 735 mmHg 65%
    04:00 +23°C° 0 mm 1 m/s 735 mmHg 64%
    05:00 +23°C° 0 mm 1 m/s 736 mmHg 64%
    06:00 +23°C° 0 mm 1 m/s 736 mmHg 63%
    07:00 +25°C° 0 mm 1 m/s 736 mmHg 56%
    08:00 +27°C° 0 mm 2 m/s 736 mmHg 48%
    09:00 +29°C° 0 mm 2 m/s 737 mmHg 40%
    10:00 +30°C° 0 mm 3 m/s 737 mmHg 38%
    11:00 +32°C° 0 mm 4 m/s 736 mmHg 36%
    12:00 +33°C° 0 mm 4 m/s 736 mmHg 33%
    13:00 +33°C° 0 mm 4 m/s 736 mmHg 34%
    14:00 +33°C° 0 mm 4 m/s 736 mmHg 34%
    15:00 +33°C° 0 mm 4 m/s 735 mmHg 34%
    16:00 +32°C° 0 mm 4 m/s 735 mmHg 39%
    17:00 +29°C° 0 mm 3 m/s 735 mmHg 44%
    18:00 +28°C° 0 mm 3 m/s 735 mmHg 49%
    19:00 +27°C° 0 mm 2 m/s 735 mmHg 53%
    20:00 +26°C° 0 mm 2 m/s 735 mmHg 56%
    21:00 +25°C° 0 mm 1 m/s 735 mmHg 60%
    22:00 +24°C° 0 mm 1 m/s 735 mmHg 60%
    23:00 +24°C° 0 mm 1 m/s 735 mmHg 61%

    27 Agosto, Terça-feira

    Tempo Temperatura Precipitação Vento Pressão Humidade
    00:00 +24°C° 0 mm 1 m/s 735 mmHg 61%
    01:00 +24°C° 0 mm 1 m/s 735 mmHg 62%
    02:00 +23°C° 0 mm 1 m/s 735 mmHg 64%
    03:00 +21°C° 0 mm 0 m/s 734 mmHg 65%
    04:00 +23°C° 0.3 mm 1 m/s 734 mmHg 68%
    05:00 +23°C° 0.3 mm 1 m/s 734 mmHg 70%
    06:00 +22°C° 0.3 mm 1 m/s 734 mmHg 73%
    07:00 +23°C° 0.8 mm 2 m/s 734 mmHg 71%
    08:00 +24°C° 0.8 mm 3 m/s 734 mmHg 68%
    09:00 +24°C° 0.8 mm 3 m/s 734 mmHg 66%
    10:00 +26°C° 0.1 mm 4 m/s 734 mmHg 59%
    11:00 +27°C° 0.1 mm 4 m/s 734 mmHg 53%
    12:00 +29°C° 0.1 mm 4 m/s 734 mmHg 47%
    13:00 +28°C° 0.7 mm 5 m/s 733 mmHg 50%
    14:00 +28°C° 0.7 mm 5 m/s 733 mmHg 54%
    15:00 +27°C° 0.7 mm 5 m/s 732 mmHg 58%
    16:00 +26°C° 1.1 mm 4 m/s 732 mmHg 65%
    17:00 +25°C° 1.1 mm 3 m/s 732 mmHg 71%
    18:00 +24°C° 1.1 mm 2 m/s 732 mmHg 78%
    19:00 +24°C° 0.3 mm 1 m/s 732 mmHg 78%
    20:00 +23°C° 0.3 mm 1 m/s 732 mmHg 79%
    21:00 +21°C° 0.3 mm 0 m/s 732 mmHg 79%
    22:00 +21°C° 0 mm 0 m/s 732 mmHg 80%
    23:00 +20°C° 0 mm 0 m/s 732 mmHg 80%
    Mostrar mais